Showing default

NADEZHDA 2, 20508

Orbit data source: Space-Track

NADEZHDA 2, 20508 is a Commonwealth of Independent States-origin payload satellite in LEO that was launched on Tue, 27 Feb 1990 UTC via a KOSMOS 11K65M launch vehicle from the Plesetsk Missile And Space Complex (PKMTR). Payload-class satellites include a variety of spacecraft equipped with specific instruments for various scientific and technological missions. These include communications satellites like Starlink; space stations such as the ISS; scientific satellites like the Hubble; Earth observation satellites from companies like Planet Labs, Umbra, and HawkEye 360; GPS; miniature CubeSats for education and research; and military/defense satellites.

Loading next visibility...
Identifier
20508, 1990-017A
Orbit
LEO
Country
Flag of CISCIS
Related business
Manufacturer
Polyot
Mission
Non-operational Civil Navigation
Bus & Motor
KAUR-1 17F118, Unknown motor
Mass
825 kg wet, 825 kg dry
Launch date (UTC)
1990-02-27 (36 years ago)
Launch vehicle
KOSMOS 11K65M
Launch site
Plesetsk Missile And Space Complex (PKMTR)
Object type
Payload
Rocket body
Debris
Shape & HBR
Cyl, 2.5 m
Radar Cross Section
9.978 m², Large (>1 m²)

Expand to show TLE details & history
Last TLE update: 2 days ago

TLE from 2 days ago
0 NADEZHDA 2
1 20508U 90017A   26171.19273814  .00000051  00000-0  36971-4 0  9990
2 20508  82.9561  71.7837 0045396  71.7515  37.6340 13.74557467820792
Epoch: 2026-06-20T04:37Z
TLE epoch observation values (Epoch: 2026-06-20T04:37:32.575Z)
Latitude
69.19797°
Longitude
-104.89078°
Altitude
968.816 km
Speed
7.387 km/s
True Right ascension
15h 31m 37s
True Declination
69° 05' 13"
Sunlit
Object was in daylight at epoch
Visualization orbit readout
Latitude
Unknown
Longitude
Unknown
Altitude
Unknown
Speed
Unknown
Apparent Right ascension
Unknown
Apparent Declination
Unknown
Sunlit
N/A
Visualization observer readout
Local Sidereal Time
23:07:48
Azimuth
Unknown
Elevation
Unknown
Doppler factor
Unknown
Orbital elements
Apogee altitude
1,013.808 km
Perigee altitude
946.998 km
Semi-major axis
7,358.54 km
Eccentricity
0.00454
Inclination
82.9561°
RAAN
71.7837°
Arg. of periapsis
71.7515°
True anomaly
37.95307°
Mean anomaly
37.634°
Eccentric anomaly
37.79339°
Mean motion
3.43839 °/min
Orbital period
104.7 mins
BSTAR
0.000036971
Loading maneuver chart data...
Computing Atmospheric mass density...
Loading historical data...
Loading historical data...
Loading historical data...
Loading historical data...
Loading historical data...
Loading historical data...
Loading historical data...
Other satellites on launch #17 in the year 1990 (1990-02-27 UTC)

Documentation

Showing up to 5 results
|